[[{"header":{"parameterUnit":"m.s-1","parameterCategory":1,"la1":30.2991,"la2":30.254,"lo1":-89.0895,"lo2":-89.0444,"dy":0.0017,"dx":0.0017,"nx":28,"ny":28,"refTime":"2025-05-31T21:00:00:Z","depth":0,"parameterNumber":2,"parameterNumberName":"U-component_of_WINDS"},"data":[0,0,0,0,0,0,0,0,0,0,0,0,0,0,0,0,0,0,0,0,0,0,0,0,0,0,0,0,0,0,0,0,0,0,0,0,0,0,0,0,0,0,0,0,0,0,0,0,0,0,0,0,0,0,0,0,0,0,-0.3483,-0.3483,0,-0.3529,-0.3529,-0.353,-0.3544,-0.3544,-0.3544,-0.3544,-0.3595,-0.3596,-0.3598,0,0,0,0,0,0,0,0,0,0,0,0,0,-0.3411,-0.3412,-0.3483,-0.3483,-0.3484,-0.3528,-0.3529,-0.353,-0.3544,-0.3544,-0.3544,-0.3544,-0.3594,-0.3596,-0.3598,0,0,0,0,0,0,0,0,0,0,0,0,0,-0.3448,-0.3413,-0.3483,-0.3497,-0.3498,-0.3528,-0.3529,-0.353,-0.3544,-0.3544,-0.3544,-0.3543,-0.3594,-0.3596,-0.3598,-0.3619,0,0,-0.3606,-0.3607,0,0,0,0,0,0,0,0,-0.3446,-0.3451,-0.3494,-0.3496,-0.3498,-0.353,-0.3523,-0.356,-0.3545,-0.3527,-0.3544,-0.3543,-0.3574,-0.3578,-0.3587,-0.3622,-0.3624,-0.3606,-0.3607,-0.3608,-0.3609,0,0,0,0,0,0,0,-0.3444,-0.3449,-0.3501,-0.3495,-0.3497,-0.3501,-0.3506,-0.353,-0.3552,-0.3529,-0.353,-0.3535,-0.3575,-0.3585,-0.3589,-0.3625,-0.3606,-0.3608,-0.3609,-0.361,-0.3677,-0.3677,0,0,0,0,0,0,-0.3438,-0.3447,-0.35,-0.3502,-0.347,-0.3503,-0.3508,-0.352,-0.3552,-0.3556,-0.3535,-0.3535,-0.3581,-0.3586,-0.3591,-0.3616,-0.3608,-0.361,-0.3612,-0.3677,-0.3677,-0.3677,0,0,0,0,0,0,-0.3437,-0.3443,-0.3498,-0.3475,-0.3482,-0.3504,-0.3518,-0.3521,-0.3531,-0.3556,-0.3561,-0.3541,-0.3581,-0.3587,-0.3611,-0.3618,-0.3611,-0.3614,-0.3676,-0.3677,-0.3677,-0.3668,0,0,0,0,0,0,-0.3434,-0.3442,-0.345,-0.3475,-0.3483,-0.3517,-0.3518,-0.3522,-0.3535,-0.3536,-0.3563,-0.3568,-0.3581,-0.3608,-0.3614,-0.3621,-0.3615,-0.3676,-0.3676,-0.3677,-0.3668,-0.3668,-0.3668,0,0,0,0,0,-0.3432,-0.3447,-0.345,-0.3456,-0.3493,-0.3517,-0.3522,-0.3537,-0.3535,-0.3543,-0.3559,-0.3567,-0.3616,-0.361,-0.3617,-0.3625,-0.3675,-0.3676,-0.3677,-0.3668,-0.3668,-0.3668,0,0,0,0,0,0,-0.3424,-0.345,-0.3454,-0.3478,-0.3495,-0.352,-0.3531,-0.3537,-0.3556,-0.3556,-0.3574,-0.3581,-0.3603,-0.3617,-0.3609,-0.3646,-0.3646,-0.3648,-0.3637,-0.3637,-0.3637,-0.3634,-0.3617,0,0,0,0,0,-0.3425,-0.3441,-0.3464,-0.3482,-0.349,-0.3509,-0.352,-0.3529,-0.3548,-0.3556,-0.3574,-0.3593,-0.3613,-0.3626,-0.3646,-0.3669,-0.3675,-0.3678,-0.3679,-0.3679,-0.3681,-0.3693,-0.3694,-0.368,-0.368,-0.368,0,0,-0.3427,-0.3443,-0.3453,-0.3481,-0.3495,-0.3512,-0.3515,-0.3533,-0.3546,-0.356,-0.3583,-0.3596,-0.3619,-0.3642,-0.3654,-0.3654,-0.3685,-0.368,-0.368,-0.3682,-0.3694,-0.3695,-0.3696,-0.3681,-0.3681,-0.3681,0,0,-0.3439,-0.3454,-0.3469,-0.3483,-0.3504,-0.3516,-0.352,-0.3543,-0.3552,-0.3575,-0.3584,-0.3601,-0.3635,-0.365,-0.3662,-0.3678,-0.3685,-0.3684,-0.3686,-0.3697,-0.3698,-0.3699,-0.3704,-0.3706,-0.3685,-0.3685,-0.3685,0,-0.344,-0.3465,-0.3477,-0.3494,-0.3506,-0.3516,-0.3533,-0.3546,-0.3573,-0.3581,-0.3581,-0.3622,-0.3639,-0.3665,-0.3668,-0.3678,-0.3683,-0.3681,-0.3697,-0.3698,-0.3699,-0.3704,-0.3706,-0.3685,-0.3685,-0.3685,-0.3685,0,-0.3464,-0.3481,-0.3491,-0.3514,-0.3527,-0.3544,-0.356,-0.3571,-0.3579,-0.3591,-0.3614,-0.3633,-0.3656,-0.3663,-0.3672,-0.369,-0.369,-0.3693,-0.3694,-0.37,-0.3705,-0.3707,-0.3685,-0.3685,-0.3685,-0.3685,0,0,-0.3474,-0.3502,-0.3506,-0.3516,-0.3538,-0.3552,-0.3569,-0.3589,-0.3599,-0.3617,-0.3631,-0.3658,-0.3661,-0.3675,-0.3685,-0.3695,-0.3705,-0.3697,-0.3698,-0.3697,-0.3726,-0.3723,-0.3725,-0.3709,-0.371,-0.371,-0.3724,0,-0.3489,-0.3518,-0.3529,-0.3553,-0.3568,-0.3577,-0.3592,-0.3608,-0.3619,-0.3634,-0.3647,-0.3666,-0.3668,-0.3676,-0.3686,-0.3701,-0.3711,-0.3701,-0.3724,-0.3724,-0.3718,-0.3728,-0.3725,-0.3737,-0.3726,-0.3726,-0.3726,0,-0.3511,-0.3526,-0.3551,-0.357,-0.3577,-0.359,-0.3608,-0.3623,-0.3641,-0.3648,-0.3662,-0.3671,-0.3689,-0.3687,-0.3713,-0.3706,-0.3716,-0.3724,-0.3725,-0.3728,-0.3726,-0.3731,-0.3741,-0.3743,-0.373,-0.3729,-0.3729,0,-0.3515,-0.3542,-0.356,-0.3568,-0.3591,-0.3599,-0.361,-0.3627,-0.3638,-0.3655,-0.3662,-0.3681,-0.3692,-0.3707,-0.3721,-0.3719,-0.3745,-0.3745,-0.3752,-0.3751,-0.3758,-0.3757,-0.377,-0.3764,-0.3764,-0.3764,-0.3764,0,-0.353,-0.3545,-0.3562,-0.3573,-0.3589,-0.3601,-0.3618,-0.3629,-0.3644,-0.3657,-0.3667,-0.368,-0.3697,-0.3713,-0.3724,-0.3743,-0.3748,-0.3755,-0.3758,-0.3754,-0.3753,-0.3761,-0.376,-0.3764,-0.3764,-0.3764,-0.3764,0,-0.3538,-0.355,-0.3569,-0.3588,-0.3593,-0.3604,-0.3621,-0.3632,-0.3643,-0.366,-0.3665,-0.3683,-0.3701,-0.3716,-0.3741,-0.3748,-0.3767,-0.3771,-0.3761,-0.3762,-0.3768,-0.3767,-0.3787,-0.379,-0.3782,-0.3782,-0.3782,0,-0.3547,-0.3558,-0.3577,-0.3586,-0.3595,-0.361,-0.362,-0.3632,-0.3643,-0.3663,-0.3672,-0.369,-0.3706,-0.3735,-0.375,-0.3769,-0.3773,-0.3778,-0.3776,-0.3771,-0.3772,-0.3771,-0.3772,-0.3778,-0.3778,-0.3778,-0.3778,0,-0.3561,-0.3566,-0.358,-0.3595,-0.3607,-0.362,-0.3634,-0.3641,-0.3656,-0.3667,-0.3685,-0.3696,-0.372,-0.3738,-0.3758,-0.377,-0.3777,-0.3779,-0.3781,-0.3778,-0.3771,-0.3774,-0.3761,-0.3779,-0.3779,-0.3779,-0.3779,-0.3779,-0.357,-0.3579,-0.3593,-0.3608,-0.3619,-0.3631,-0.3642,-0.3653,-0.3667,-0.3686,-0.3693,-0.371,-0.3727,-0.3754,-0.3765,-0.378,-0.3781,-0.3785,-0.3786,-0.3787,-0.3786,-0.3768,-0.3784,-0.3784,-0.3784,-0.3784,-0.3784,0,-0.3584,-0.3593,-0.3606,-0.3623,-0.3635,-0.3638,-0.3653,-0.3663,-0.3678,-0.3692,-0.3706,-0.3725,-0.3743,-0.3759,-0.3777,-0.3785,-0.3789,-0.379,-0.3789,-0.3792,-0.3784,-0.378,-0.3786,-0.3786,-0.3786,-0.3786,-0.3786,-0.3786,-0.3592,-0.3608,-0.3614,-0.3636,-0.3645,-0.3661,-0.3669,-0.368,-0.3691,-0.3712,-0.3725,-0.3735,-0.375,-0.3768,-0.3784,-0.3789,-0.3795,-0.3795,-0.38,-0.3793,-0.3792,-0.3792,-0.3788,-0.3796,-0.3796,-0.3806,-0.3806,-0.3806]},{"header":{"parameterUnit":"m.s-1","parameterCategory":1,"la1":30.2991,"la2":30.254,"lo1":-89.0895,"lo2":-89.0444,"dy":0.0017,"dx":0.0017,"nx":28,"ny":28,"refTime":"2025-05-31T21:00:00:Z","depth":0,"parameterNumber":3,"parameterNumberName":"V-component_of_WINDS"},"data":[0,0,0,0,0,0,0,0,0,0,0,0,0,0,0,0,0,0,0,0,0,0,0,0,0,0,0,0,0,0,0,0,0,0,0,0,0,0,0,0,0,0,0,0,0,0,0,0,0,0,0,0,0,0,0,0,0,0,-2.1955,-2.1955,0,-2.1967,-2.1967,-2.1968,-2.193,-2.1929,-2.1928,-2.1927,-2.1938,-2.1939,-2.194,0,0,0,0,0,0,0,0,0,0,0,0,0,-2.1898,-2.19,-2.1955,-2.1955,-2.1956,-2.1967,-2.1967,-2.1968,-2.193,-2.1929,-2.1928,-2.1926,-2.1937,-2.1939,-2.194,0,0,0,0,0,0,0,0,0,0,0,0,0,-2.1918,-2.19,-2.1955,-2.1938,-2.1937,-2.1967,-2.1967,-2.1968,-2.1931,-2.1929,-2.1927,-2.1926,-2.1937,-2.1939,-2.1941,-2.1987,0,0,-2.1947,-2.1948,0,0,0,0,0,0,0,0,-2.1917,-2.192,-2.1941,-2.194,-2.1938,-2.1945,-2.1951,-2.1974,-2.1931,-2.1933,-2.1927,-2.1925,-2.1942,-2.1943,-2.1949,-2.1988,-2.1988,-2.1947,-2.1948,-2.1949,-2.195,0,0,0,0,0,0,0,-2.1916,-2.1919,-2.196,-2.1941,-2.194,-2.193,-2.1931,-2.1955,-2.1947,-2.1933,-2.193,-2.1932,-2.194,-2.1947,-2.1949,-2.1988,-2.1947,-2.1949,-2.195,-2.1951,-2.2064,-2.2066,0,0,0,0,0,0,-2.1917,-2.1919,-2.196,-2.196,-2.1923,-2.1932,-2.1933,-2.1945,-2.1946,-2.1945,-2.1933,-2.193,-2.1944,-2.1947,-2.1949,-2.2003,-2.1949,-2.1951,-2.1952,-2.2063,-2.2065,-2.2067,0,0,0,0,0,0,-2.1916,-2.1921,-2.1959,-2.1939,-2.1943,-2.1935,-2.1948,-2.1946,-2.1953,-2.1947,-2.1945,-2.1942,-2.1943,-2.1946,-2.1978,-2.2002,-2.1952,-2.1954,-2.2061,-2.2063,-2.2066,-2.2111,0,0,0,0,0,0,-2.1914,-2.1921,-2.1939,-2.1939,-2.1944,-2.1988,-2.195,-2.1947,-2.1956,-2.1952,-2.1954,-2.1953,-2.1942,-2.1975,-2.198,-2.2004,-2.1955,-2.2058,-2.2062,-2.2065,-2.2107,-2.2115,-2.2121,0,0,0,0,0,-2.1912,-2.1951,-2.194,-2.1945,-2.1967,-2.199,-2.1992,-2.1979,-2.1959,-2.1976,-2.1972,-2.1953,-2.1999,-2.1979,-2.1984,-2.2009,-2.2057,-2.2061,-2.2065,-2.2104,-2.2113,-2.2121,0,0,0,0,0,0,-2.1953,-2.195,-2.1938,-2.1978,-2.1985,-2.1983,-2.2005,-2.199,-2.2002,-2.1997,-2.198,-2.1981,-2.2015,-2.2016,-2.1992,-2.2054,-2.2024,-2.203,-2.2052,-2.2061,-2.2068,-2.2067,-2.1957,0,0,0,0,0,-2.1966,-2.1986,-2.1983,-2.2018,-2.2022,-2.2013,-2.2023,-2.2012,-2.2018,-2.202,-2.2019,-2.2024,-2.204,-2.2051,-2.2065,-2.2107,-2.2106,-2.2127,-2.2134,-2.214,-2.2145,-2.2166,-2.2175,-2.208,-2.208,-2.208,0,0,-2.1994,-2.1996,-2.2009,-2.2026,-2.203,-2.205,-2.2016,-2.2038,-2.2052,-2.2023,-2.2053,-2.2052,-2.2057,-2.2094,-2.211,-2.2095,-2.2171,-2.2145,-2.215,-2.2151,-2.2171,-2.218,-2.2188,-2.2083,-2.2082,-2.2082,0,0,-2.2055,-2.2059,-2.2088,-2.2093,-2.2099,-2.2093,-2.21,-2.2101,-2.2099,-2.2129,-2.2107,-2.2124,-2.2152,-2.2156,-2.2162,-2.2224,-2.2206,-2.2229,-2.2266,-2.2287,-2.2294,-2.2301,-2.2322,-2.233,-2.2234,-2.2234,-2.2234,0,-2.2089,-2.2119,-2.2105,-2.2129,-2.2137,-2.2112,-2.2141,-2.2146,-2.2156,-2.2162,-2.2145,-2.2179,-2.2181,-2.2218,-2.2233,-2.2239,-2.2246,-2.2228,-2.2294,-2.2301,-2.2306,-2.2326,-2.2334,-2.2237,-2.2236,-2.2236,-2.2236,0,-2.2159,-2.218,-2.2203,-2.2214,-2.2224,-2.2251,-2.2241,-2.2253,-2.2242,-2.2237,-2.2267,-2.2268,-2.2282,-2.229,-2.228,-2.2325,-2.2316,-2.2297,-2.2267,-2.2318,-2.2337,-2.2344,-2.2241,-2.224,-2.2239,-2.2238,0,0,-2.2245,-2.2248,-2.2257,-2.2261,-2.2266,-2.2281,-2.2306,-2.232,-2.233,-2.2338,-2.2358,-2.2382,-2.2365,-2.2371,-2.2361,-2.2379,-2.2427,-2.2358,-2.2358,-2.237,-2.2476,-2.2489,-2.2498,-2.2416,-2.2418,-2.2419,-2.2475,0,-2.2304,-2.2347,-2.2336,-2.2379,-2.2397,-2.2374,-2.2395,-2.24,-2.2397,-2.2411,-2.2407,-2.2424,-2.2401,-2.2404,-2.2422,-2.2418,-2.2448,-2.2414,-2.2433,-2.2434,-2.2431,-2.2508,-2.2522,-2.2576,-2.2483,-2.2484,-2.2485,0,-2.2379,-2.2389,-2.2434,-2.2435,-2.2442,-2.2462,-2.2473,-2.2488,-2.2493,-2.2489,-2.2496,-2.2482,-2.2506,-2.2477,-2.2509,-2.2486,-2.2493,-2.2492,-2.2494,-2.2494,-2.2461,-2.2509,-2.2592,-2.26,-2.2496,-2.2495,-2.2494,0,-2.2435,-2.2461,-2.249,-2.2495,-2.2497,-2.2512,-2.2513,-2.2516,-2.2525,-2.2535,-2.254,-2.2553,-2.2559,-2.2569,-2.2558,-2.2538,-2.2592,-2.2562,-2.2588,-2.2588,-2.2599,-2.2598,-2.2683,-2.2607,-2.2606,-2.2606,-2.2606,0,-2.2501,-2.2529,-2.2516,-2.2534,-2.2564,-2.2551,-2.2581,-2.2579,-2.2583,-2.2599,-2.2581,-2.2597,-2.2582,-2.2597,-2.2589,-2.2616,-2.262,-2.2616,-2.2614,-2.2617,-2.2617,-2.2621,-2.2616,-2.2608,-2.2608,-2.2608,-2.2607,0,-2.2568,-2.2561,-2.2591,-2.2591,-2.2592,-2.2614,-2.2614,-2.263,-2.2625,-2.2647,-2.2651,-2.2644,-2.266,-2.2651,-2.2668,-2.2662,-2.2697,-2.269,-2.2695,-2.2693,-2.2719,-2.2716,-2.2808,-2.2818,-2.2736,-2.2737,-2.2738,0,-2.261,-2.2631,-2.2633,-2.2643,-2.2646,-2.2663,-2.2672,-2.2659,-2.2669,-2.2676,-2.2691,-2.2706,-2.2717,-2.2744,-2.274,-2.2753,-2.2745,-2.2776,-2.2746,-2.2749,-2.2743,-2.2742,-2.2743,-2.2782,-2.2783,-2.2783,-2.2784,0,-2.2685,-2.268,-2.2694,-2.2706,-2.2717,-2.2726,-2.2733,-2.2743,-2.273,-2.2742,-2.2759,-2.2768,-2.2785,-2.2799,-2.281,-2.2811,-2.2795,-2.2794,-2.28,-2.2803,-2.2805,-2.2803,-2.271,-2.2791,-2.279,-2.279,-2.2789,-2.2789,-2.2739,-2.2756,-2.276,-2.2776,-2.278,-2.2788,-2.2803,-2.28,-2.2814,-2.2827,-2.2819,-2.2838,-2.2842,-2.2855,-2.2858,-2.2872,-2.2859,-2.2869,-2.2871,-2.2873,-2.2876,-2.2804,-2.2874,-2.2874,-2.2874,-2.2874,-2.2873,0,-2.2811,-2.2813,-2.2828,-2.2838,-2.2851,-2.2836,-2.2843,-2.2854,-2.2871,-2.2876,-2.2888,-2.2906,-2.292,-2.2918,-2.293,-2.2942,-2.2935,-2.2946,-2.2944,-2.2944,-2.2888,-2.288,-2.2951,-2.2951,-2.2951,-2.2951,-2.2951,-2.2951,-2.285,-2.2878,-2.2874,-2.2903,-2.2904,-2.2923,-2.2928,-2.2935,-2.2938,-2.296,-2.2972,-2.297,-2.2972,-2.2984,-2.2996,-2.2995,-2.3,-2.3013,-2.3009,-2.2956,-2.2948,-2.2941,-2.2933,-2.3014,-2.3014,-2.3063,-2.3064,-2.3064]}]]